Location: Kergrach
(48.3833°N, 4.5167°W)
Time: 18:06:44
(UTC+00:00)

Cosmos 1943 Rocket - Pass Details

Date: 18 February 2020
Orbit: 814 x 842 km, 71.0° (Epoch: 27 March)

Event Time Altitude Azimuth Distance (km) Brightness Sun altitude
Exits shadow 05:54:58 10° 318° (NW) 2,406 4.2 -14.9°
Maximum altitude 05:59:56 37° 253° (WSW) 1,258 2.6 -14.1°
Drops below altitude 10° 06:04:55 10° 188° (S) 2,398 4.5 -13.3°
Sets 06:07:29 0° 180° (S) 3,327 5.4 -12.9°
